sat.trackr.live / text

‹ back to catalog

STARLINK-11542 [DTC]

NORAD 62988 · 2025-031H

PAYLOAD ACTIVE UNKNOWN

§ Identity

Operator
Country
US
Launch date
2025-02-11
Launch site
AFETR
Launch vehicle
Mass (kg)
RCS (m²)

Purposes: comms

External: N2YO · Heavens-Above · Gunter

§ Orbital elements

Epoch: 2026-05-25T01:00:17.506656Z

Period
91.67 min
Inclination
42.9998°
Eccentricity
0.0000838
Mean motion
15.70881271 rev/d
Perigee alt
355.8 km
Apogee alt
356.9 km
Semi-major
6,734.5 km
B*
1.3134e-3
RAAN
260.9594°
Arg perigee
50.8140°
Mean anomaly
309.2802°
Rev number
7,472

§ Raw data

STARLINK-11542 [DTC]1 62988U 25031H   26145.04186929  .00171901  00000+0  13134-2 0  99932 62988  42.9998 260.9594 0000838  50.8140 309.2802 15.70881271 74722

JSON: /api/v1/satellites/62988 · /tle

For live sub-satellite position, see the globe view (requires WebGL).

§ Visibility from observer

Set your observer location to see the next 7 days of passes ≥ 10°. The values pass through the URL so the page stays shareable.

No JS? Fill the form by hand. The geolocation button needs JavaScript.